Location: Abraham Lincoln Continuation High School
(33.9711°N, 117.3662°W)
Time: 07:52:02
(UTC+00:00)

Iridium 4 Rocket - Pass Details

Date: 19 January 2021
Orbit: 583 x 906 km, 86.9° (Epoch: 24 February)

Event Time Altitude Azimuth Distance (km) Brightness Sun altitude
Rises 02:47:36 0° 3° (N) 3,472 6.8 -20.7°
Reaches altitude 10° 02:50:11 10° 8° (N) 2,497 6.0 -21.2°
Maximum altitude 02:55:42 55° 86° (E) 975 3.6 -22.4°
Drops below altitude 10° 03:00:45 10° 164° (SSE) 2,290 5.9 -23.4°
Sets 03:03:01 0° 168° (SSE) 3,161 6.7 -23.9°
